Weather History for Prague, Czech Republic

Change the Weather History Date:

Wednesday, January 16, 2013

  Actual Average Record
Temperature  
Mean Temperature 24 °F -  
Max Temperature 26 °F 35 °F 50 °F (2011)
Min Temperature 23 °F 23 °F 3 °F (2001)
Degree Days  
Heating Degree Days 40    
Moisture  
Dew Point 24 °F    
Average Humidity 93    
Maximum Humidity 100    
Minimum Humidity 86    
Precipitation  
Precipitation 0.00 in 0.03 in - ()
Sea Level Pressure  
Sea Level Pressure 29.70 in    
Wind  
Wind Speed 3 mph ()    
Max Wind Speed 11 mph    
Max Gust Speed -    
Visibility 2.1 miles    
Events Fog , Rain , Snow    
Averages and records for this station are not official NWS values.
T = Trace of Precipitation, MM = Missing Value Source: Averaged Metar Reports

Daily Weather History Graph

Daily Weather History Graph

Search for Another Location

Airport:

Trip Planner

Search our weather history database for the weather conditions in past years. The results will help you decide how hot, cold, wet, or windy it might be!

Date:

Astronomy

Jan. 16, 2013 Rise Set
Actual Time 7:55 AM CET 4:30 PM CET
Civil Twilight 7:18 AM CET 5:07 PM CET
Nautical Twilight 6:37 AM CET 5:48 PM CET
Astronomical Twilight 5:59 AM CET 6:26 PM CET
Moon 9:47 AM CET (1/16) 10:44 PM CET (1/16)
Length of Visible Light 9h 49m
Length of Day
8h 35m
Waxing Crescent, 25% of the Moon is Illuminated
Jan 16
Waxing Crescent
Jan 19
First Quarter
Jan 27
Full
Feb 3
Last Quarter
Feb 10
New

Hourly Weather History & Observations

Time (CET) Temp. Windchill Dew Point Humidity Pressure Visibility Wind Dir Wind Speed Gust Speed Precip Events Conditions
12:00 AM 24.8 °F - 23.0 °F 93% 29.71 in 1.5 mi West 2.3 mph - N/A   Overcast
12:30 AM 24.8 °F - 23.0 °F 93% 29.71 in 1.6 mi Calm Calm - N/A   Overcast
1:00 AM 24 °F - 23 °F 95% 29.80 in 2 mi East 2.2 mph - -   Mist
1:00 AM 24.8 °F - 23.0 °F 93% 29.71 in 1.9 mi East 1.2 mph - N/A   Overcast
1:30 AM 24.8 °F - 23.0 °F 93% 29.71 in 2.5 mi Variable 1.2 mph - N/A   Overcast
2:00 AM 24.8 °F - 23.0 °F 93% 29.71 in - SE 2.3 mph - N/A   Overcast
2:30 AM 24.8 °F - 23.0 °F 93% 29.71 in 3.1 mi Variable 2.3 mph - N/A   Overcast
3:00 AM 24.8 °F - 23.0 °F 93% 29.71 in 3.1 mi South 2.3 mph - N/A   Overcast
3:30 AM 24.8 °F 20.5 °F 23.0 °F 93% 29.71 in 3.1 mi SW 3.5 mph - N/A   Overcast
3:49 AM 24.8 °F 20.5 °F 23.0 °F 93% 29.71 in 3.7 mi WSW 3.5 mph - N/A   Overcast
4:00 AM 24.8 °F 20.5 °F 23.0 °F 93% 29.71 in 4.3 mi WSW 3.5 mph - N/A   Overcast
4:11 AM 24.8 °F - 23.0 °F 93% 29.71 in 2.8 mi WNW 2.3 mph - N/A   Overcast
4:30 AM 24.8 °F - 23.0 °F 93% 29.71 in 2.5 mi West 2.3 mph - N/A   Overcast
5:00 AM 24.8 °F - 23.0 °F 93% 29.68 in 1.7 mi NNW 2.3 mph - N/A   Overcast
5:30 AM 24.8 °F - 23.0 °F 93% 29.68 in 1.2 mi North 2.3 mph - N/A   Overcast
6:00 AM 24.8 °F - 23.0 °F 93% 29.68 in 1.7 mi Calm Calm - N/A   Overcast
6:11 AM 24.8 °F - 23.0 °F 93% 29.68 in 1.9 mi Variable 1.2 mph - N/A   Overcast
6:24 AM 24.8 °F 19.1 °F 23.0 °F 93% 29.68 in 1.6 mi NNW 4.6 mph - N/A   Light Freezing Rain
6:30 AM 24.8 °F 19.1 °F 23.0 °F 93% 29.71 in 1.6 mi NNW 4.6 mph - N/A   Light Freezing Rain
6:37 AM 24.8 °F 20.5 °F 23.0 °F 93% 29.71 in 1.4 mi NNW 3.5 mph - N/A   Light Freezing Rain
7:00 AM 24 °F - 23 °F 95% 29.80 in 1 mi North 4.5 mph - - Rain Light Freezing Drizzle
7:00 AM 24.8 °F 19.1 °F 23.0 °F 93% 29.71 in 1.1 mi NNW 4.6 mph - N/A   Light Freezing Rain
7:30 AM 24.8 °F 19.1 °F 23.0 °F 93% 29.71 in 1.4 mi NNW 4.6 mph - N/A   Light Freezing Rain
8:00 AM 24.8 °F 20.5 °F 23.0 °F 93% 29.71 in 0.9 mi North 3.5 mph - N/A   Overcast
8:11 AM 24.8 °F 20.5 °F 23.0 °F 93% 29.71 in 0.7 mi NNW 3.5 mph - N/A   Light Freezing Drizzle
8:30 AM 24.8 °F 20.5 °F 23.0 °F 93% 29.71 in 0.9 mi North 3.5 mph - N/A   Overcast
8:37 AM 24.8 °F 20.5 °F 23.0 °F 93% 29.71 in 0.7 mi NNW 3.5 mph - N/A   Overcast
9:00 AM 24.8 °F - 23.0 °F 93% 29.74 in 0.6 mi Variable 2.3 mph - N/A Fog Light Freezing Fog
9:30 AM 24.8 °F 19.1 °F 23.0 °F 93% 29.71 in 0.5 mi North 4.6 mph - N/A Fog Light Freezing Fog
9:42 AM 24.8 °F 19.1 °F 23.0 °F 93% 29.71 in 0.9 mi NNW 4.6 mph - N/A   Overcast
10:00 AM 24.8 °F - 23.0 °F 93% 29.71 in 1.1 mi Variable 2.3 mph - N/A   Overcast
10:14 AM 24.8 °F - 23.0 °F 93% 29.71 in 1.2 mi Variable 1.2 mph - N/A   Overcast
10:20 AM 24.8 °F - 24.8 °F 100% 29.71 in 1.2 mi Calm Calm - N/A Snow Light Snow Grains
10:30 AM 24.8 °F - 23.0 °F 93% 29.71 in 1.6 mi Variable 2.3 mph - N/A Snow Light Snow Grains
11:00 AM 24.8 °F - 24.8 °F 100% 29.71 in 1.7 mi Variable 2.3 mph - N/A Snow Light Snow Grains
11:30 AM 24.8 °F 20.5 °F 23.0 °F 93% 29.71 in - NNW 3.5 mph - N/A   Overcast
12:00 PM 26.6 °F 20.0 °F 24.8 °F 93% 29.71 in 2.2 mi NW 5.8 mph - N/A   Overcast
12:30 PM 24.8 °F 19.1 °F 24.8 °F 100% 29.71 in - NW 4.6 mph - N/A   Overcast
1:00 PM 26 °F - 24 °F 87% 29.78 in 2 mi North 4.5 mph - -   Mist
1:00 PM 26.6 °F 20.0 °F 24.8 °F 93% 29.68 in 2.5 mi NNW 5.8 mph - N/A   Overcast
1:21 PM 26.6 °F 20.0 °F 24.8 °F 93% 29.68 in 1.6 mi NNW 5.8 mph - N/A Snow Light Snow Grains
1:30 PM 26.6 °F 20.0 °F 24.8 °F 93% 29.68 in 1.4 mi NNW 5.8 mph - N/A Snow Light Snow Grains
2:00 PM 26.6 °F 21.2 °F 24.8 °F 93% 29.68 in 1.5 mi NNW 4.6 mph - N/A   Light Freezing Drizzle
2:30 PM 26.6 °F 22.6 °F 24.8 °F 93% 29.68 in 1.3 mi NW 3.5 mph - N/A   Light Freezing Rain
3:00 PM 26.6 °F 22.6 °F 24.8 °F 93% 29.68 in 1.1 mi NNW 3.5 mph - N/A   Light Freezing Rain
3:30 PM 26.6 °F 19.1 °F 24.8 °F 93% 29.68 in 0.9 mi NNW 6.9 mph - N/A   Light Freezing Drizzle
4:00 PM 26.6 °F 21.2 °F 24.8 °F 93% 29.68 in 1.0 mi NNW 4.6 mph - N/A   Light Freezing Rain
4:30 PM 26.6 °F 19.1 °F 24.8 °F 93% 29.68 in 1.4 mi North 6.9 mph - N/A   Light Freezing Rain
5:00 PM 26.6 °F 19.1 °F 24.8 °F 93% 29.68 in 2.2 mi North 6.9 mph - N/A   Light Freezing Rain
5:20 PM 26.6 °F 18.2 °F 24.8 °F 93% 29.68 in - North 8.1 mph - N/A   Overcast
5:30 PM 26.6 °F 19.1 °F 24.8 °F 93% 29.68 in - North 6.9 mph - N/A   Overcast
5:44 PM 26.6 °F 19.1 °F 24.8 °F 93% 29.68 in 2.8 mi North 6.9 mph - N/A   Overcast
6:00 PM 26.6 °F 18.2 °F 24.8 °F 93% 29.68 in - North 8.1 mph - N/A   Overcast
6:30 PM 26.6 °F 18.2 °F 24.8 °F 93% 29.68 in 3.1 mi North 8.1 mph - N/A   Overcast
7:00 PM 26 °F - 24 °F 90% 29.77 in 3 mi North 11.2 mph - -   Mist
7:00 PM 26.6 °F 17.5 °F 24.8 °F 93% 29.68 in 3.1 mi North 9.2 mph - N/A   Overcast
7:30 PM 26.6 °F 18.2 °F 24.8 °F 93% 29.68 in 3.7 mi North 8.1 mph - N/A   Overcast
8:00 PM 26.6 °F 18.2 °F 24.8 °F 93% 29.68 in 4.3 mi North 8.1 mph - N/A   Overcast
8:30 PM 26.6 °F 18.2 °F 24.8 °F 93% 29.68 in 4.3 mi North 8.1 mph - N/A   Overcast
9:00 PM 26.6 °F 17.5 °F 23.0 °F 86% 29.68 in 4.3 mi North 9.2 mph - N/A Snow Light Snow
9:30 PM 26.6 °F 20.0 °F 23.0 °F 86% 29.71 in 4.3 mi North 5.8 mph - N/A   Overcast
10:00 PM 26.6 °F 19.1 °F 24.8 °F 93% 29.68 in 4.3 mi NNW 6.9 mph - N/A   Overcast
10:30 PM 24.8 °F 16.1 °F 23.0 °F 93% 29.68 in 3.7 mi North 8.1 mph - N/A   Overcast
11:00 PM 24.8 °F 15.3 °F 23.0 °F 93% 29.71 in 3.7 mi North 9.2 mph - N/A Snow Light Snow
11:30 PM 24.8 °F 15.3 °F 23.0 °F 93% 29.71 in 3.1 mi North 9.2 mph - N/A Snow Light Snow